Location: Oroua River
(40.4333°S, 175.4333°E)
Time: 15:02:48
(UTC+00:00)

Cosmos 1802 Rocket - Pass Details

Date: 03 February 2023
Orbit: 953 x 1012 km, 82.9° (Epoch: 22 March)

Event Time Altitude Azimuth Distance (km) Brightness Sun altitude
Exits shadow 14:02:30 64° 60° (ENE) 1,070 4.0 -29.3°
Maximum altitude 14:02:59 66° 87° (E) 1,052 4.1 -29.3°
Drops below altitude 10° 14:09:12 10° 167° (SSE) 2,747 7.2 -28.8°
Sets 14:11:46 0° 169° (S) 3,709 8.1 -28.5°
